Temperature
13 13 13 13 13 13 13 14 14 14 14 14 14 14 14 14 14 14 14 14 14 14 14 14 14 15 15 15 15 15 15 15 15 15 15 15 15 15 15 15 14 14 14
13 13 13 13 13 13 13 13 13 13 14 14 14 14 14 14 14 14 14 14 14 14 14 14 14 14 15 15 15 15 15 15 15 15 14 14 14 14 14 14 14 14 14
13 13 13 13 13 13 13 13 13 13 13 13 13 14 14 14 14 14 14 14 14 14 14 14 14 14 14 14 14 14 14 14 14 14 14 14 14 14 14 14 14 14 14
12 12 12 12 12 12 12 13 13 13 13 13 13 13 13 13 13 13 13 13 13 13 13 14 14 14 14 14 14 14 14 14 14 14 13 13 13 14 14 14 14 14 14
12 12 12 12 12 12 12 12 12 12 13 13 13 13 13 13 13 13 13 13 13 13 13 13 13 13 13 14 14 14 14 14 14 14 13 13 13 13 13 13 13 13 13
12 11 12 12 12 12 12 12 12 12 12 12 12 13 13 13 13 13 13 13 13 13 13 13 13 13 13 13 13 13 14 14 13 13 13 13 13 13 13 13 13 13 13
11 11 11 11 11 11 11 12 12 12 12 12 12 12 12 13 13 13 13 12 12 12 13 12 12 13 13 13 13 13 13 13 13 13 13 13 13 13 13 13 13 13 13
11 11 11 11 11 11 11 11 11 11 12 12 12 12 12 12 12 13 13 12 12 12 12 12 12 12 12 12 13 13 13 13 12 12 12 12 13 13 13 12 12 12 13
10 10 10 11 11 11 11 11 11 11 11 11 11 12 12 12 12 12 12 12 12 12 12 12 12 12 12 12 12 12 12 12 12 12 12 12 12 12 12 12 12 12 12
10 10 10 10 10 10 10 10 11 11 11 11 11 11 11 11 11 12 12 12 12 12 12 12 12 12 12 12 12 12 12 12 11 12 12 12 12 12 12 12 12 12 12
9 10 10 10 10 10 10 10 10 10 10 10 10 11 11 11 11 11 11 11 11 11 11 11 11 11 12 11 11 11 11 11 11 11 11 11 12 12 12 12 12 12 12
9 9 9 9 10 10 10 10 10 10 10 10 10 10 10 10 11 11 11 11 11 11 11 11 11 11 11 11 11 11 11 11 11 11 11 11 11 11 11 11 11 11 11
9 9 9 9 9 9 9 9 9 9 9 10 10 10 10 10 10 10 10 10 10 10 11 11 11 11 11 10 10 10 10 10 11 11 11 11 11 11 11 11 11 11 11
9 9 9 9 9 9 9 9 9 9 9 9 9 9 9 10 10 10 10 10 10 10 10 10 10 10 10 10 10 10 10 10 10 10 10 10 11 11 11 11 11 11 11
8 8 9 9 9 9 9 9 9 9 9 9 9 9 9 9 9 9 9 9 9 10 10 10 10 10 10 10 10 10 10 10 10 10 10 10 10 10 10 11 10 10 10
8 8 8 8 8 8 8 8 8 8 8 8 8 8 8 9 9 9 9 9 9 9 9 9 9 9 9 9 9 9 9 9 9 9 9 9 10 10 10 10 10 10 10
7 7 8 8 8 8 8 8 8 8 8 8 8 8 8 8 8 8 8 8 8 9 9 9 9 9 9 9 9 9 9 9 9 9 9 9 9 9 9 10 10 10 10
7 7 7 7 7 7 7 8 7 7 7 7 7 7 7 7 8 8 8 8 8 8 8 8 8 8 8 8 8 8 9 9 9 9 9 9 9 9 9 9 9 9 9
6 7 7 7 7 7 7 7 7 7 7 7 7 7 7 7 7 7 7 7 7 8 8 8 8 8 8 8 8 8 8 8 8 8 8 8 8 8 8 8 9 8 9
6 6 6 6 6 6 6 6 6 6 6 6 6 6 6 7 7 6 6 7 7 7 7 7 7 7 7 7 7 7 7 8 8 8 8 8 8 8 8 8 8 8 8
5 5 6 6 6 6 6 6 6 6 6 6 6 6 6 6 6 6 6 6 6 6 6 6 6 6 7 7 7 6 7 7 7 7 7 7 7 7 7 7 7 8 8
5 5 5 5 5 5 5 5 5 5 5 5 5 5 5 5 6 6 5 6 6 6 6 6 6 6 6 6 6 5 5 5 6 6 7 7 7 7 7 7 7 7 7
4 4 5 5 5 5 5 5 5 4 4 5 5 5 5 5 5 5 5 5 5 5 5 5 5 5 5 5 5 5 5 5 5 5 6 6 6 6 6 6 6 6 6
4 4 4 4 4 4 4 4 4 4 4 4 4 4 4 4 4 4 4 4 4 4 4 4 5 5 5 5 5 5 5 5 5 4 5 5 5 5 5 5 5 5 6
3 3 3 3 3 4 3 3 3 3 3 3 3 4 4 4 4 4 4 4 4 4 4 4 4 4 4 4 4 4 4 4 4 4 4 4 5 5 5 5 5 5 5
2 3 3 3 3 3 3 3 3 3 3 3 3 3 3 3 3 3 3 3 3 3 3 3 3 3 4 3 4 3 4 3 4 4 4 4 4 4 4 4 4 4 4
Wind_Speed
3 3 4 4 7 9 9 9 10 9 9 9 9 9 9 9 9 10 9 10 11 12 12 13 13 14 14 14 14 15 15 15 15 15 15 15 15 15 15 13 13 14 16
3 4 5 5 7 9 9 9 10 10 9 9 9 9 9 9 9 9 10 10 11 11 12 12 13 13 14 14 14 14 14 14 14 13 12 14 15 14 14 14 13 14 15
4 5 6 6 8 9 9 10 10 9 9 9 9 8 9 8 8 9 9 10 10 11 11 11 12 13 13 14 14 14 14 13 12 10 9 11 13 13 13 14 14 14 14
4 5 6 7 8 9 9 9 10 10 9 9 9 8 8 9 9 9 9 9 10 10 10 11 11 12 13 13 13 13 13 12 11 7 8 10 11 12 13 13 14 14 14
4 5 6 7 8 8 9 9 10 10 9 9 9 8 8 9 9 9 9 9 10 10 10 10 11 11 12 12 12 12 12 10 8 8 9 9 10 11 12 12 13 13 13
4 4 6 7 7 8 8 9 10 10 9 9 8 8 8 8 9 9 9 9 9 9 10 10 10 11 11 11 11 11 10 8 7 8 9 8 9 10 11 12 12 12 12
3 3 5 6 7 7 8 9 9 9 9 8 8 7 8 8 8 8 8 9 8 8 9 9 10 10 10 10 10 10 9 7 7 8 8 8 9 10 10 11 11 11 11
3 4 5 6 6 7 7 8 9 9 8 8 8 7 7 7 7 7 8 8 8 7 8 8 9 10 10 10 9 9 8 6 7 7 8 8 10 10 10 10 10 10 9
3 4 4 5 6 6 7 8 8 8 8 8 8 7 7 7 7 7 7 7 7 7 7 7 9 9 9 9 9 8 8 6 6 7 7 8 9 9 9 9 9 9 9
3 3 3 3 4 5 6 7 7 7 8 8 8 7 8 7 7 7 6 7 7 7 7 7 8 9 9 9 8 7 6 5 6 6 6 8 8 8 9 8 9 9 9
2 2 2 2 3 4 5 6 6 7 8 8 7 7 7 5 5 5 6 6 6 7 7 7 7 8 8 8 7 6 5 5 5 5 6 8 7 7 7 7 8 8 8
2 1 1 1 2 3 3 4 4 4 5 5 5 5 4 4 4 4 6 6 6 7 7 7 7 6 5 5 5 5 4 5 5 5 6 7 7 6 7 7 7 7 7
3 1 0 1 1 2 2 3 3 3 4 4 4 5 4 4 3 3 4 4 4 5 5 4 4 4 4 4 4 4 4 4 4 4 6 7 6 7 7 7 6 6 6
2 2 1 0 1 1 2 2 3 3 3 3 3 4 4 3 2 2 2 2 2 2 2 3 3 3 4 4 4 4 4 3 3 3 5 7 6 6 6 6 6 6 6
2 3 2 1 1 1 1 2 2 3 3 4 4 4 4 3 3 2 2 2 2 2 2 2 2 3 3 4 4 4 3 3 3 3 4 7 7 6 5 6 5 5 6
2 3 2 2 2 1 2 2 2 2 3 3 3 4 4 3 3 2 2 1 1 1 1 2 2 2 3 3 3 3 3 3 2 2 2 4 5 6 5 5 5 5 5
3 2 2 2 2 1 2 2 2 2 2 2 3 4 4 4 3 3 2 2 1 2 2 2 2 2 2 3 2 2 2 2 2 2 2 2 2 4 5 5 5 5 5
2 2 1 1 1 1 1 2 2 2 3 2 2 3 4 4 4 3 3 2 2 2 2 2 2 2 2 2 1 1 1 1 1 1 1 1 2 2 4 5 5 5 5
2 1 1 0 0 0 1 1 2 2 2 2 2 2 2 3 3 3 2 2 3 3 2 2 2 2 2 2 2 1 1 1 1 1 1 1 2 2 2 4 5 5 5
1 1 1 0 0 1 1 1 1 2 1 2 2 1 2 2 3 2 2 3 3 3 2 2 2 2 2 2 2 1 0 0 0 0 0 1 2 2 2 2 2 3 4
0 0 1 1 1 1 1 1 2 1 1 1 1 1 2 2 3 3 2 3 3 3 3 3 3 3 2 2 2 1 1 1 1 0 0 0 1 1 1 2 2 2 2
1 1 1 1 1 1 1 1 1 1 1 1 1 1 1 2 3 3 3 3 3 3 3 4 4 3 2 2 2 2 2 2 1 1 1 1 0 0 0 0 1 1 0
1 1 1 1 1 1 0 1 1 1 1 1 1 1 0 1 2 3 3 3 3 4 4 5 5 4 4 2 2 2 3 3 1 2 2 2 1 1 1 1 1 1 1
2 2 2 1 1 1 1 1 2 1 1 2 2 1 1 1 1 2 3 3 3 3 3 4 4 4 4 3 2 2 2 1 2 2 2 2 2 2 2 2 2 2 2
2 2 2 2 1 1 1 1 2 1 1 1 1 1 1 1 0 1 1 2 3 2 3 3 3 3 4 4 3 2 2 2 3 3 3 2 2 2 2 2 2 2 2
2 1 1 2 1 1 1 1 1 2 1 2 1 1 1 1 1 1 1 2 2 2 3 3 3 4 3 4 3 3 3 3 3 3 4 3 3 2 2 2 2 2 2
Wind_Direction
152 156 146 139 124 119 112 106 101 97 93 90 89 88 87 87 89 88 86 84 83 80 83 86 86 86 86 83 82 81 79 78 77 76 76 76 77 79 78 76 82 82 80
153 159 148 143 127 120 116 112 106 100 94 92 92 89 89 90 89 89 90 87 85 83 83 87 88 87 87 84 83 82 81 79 78 78 81 82 78 78 78 73 73 82 82
142 149 153 142 131 124 119 115 110 103 97 95 93 90 89 89 90 88 88 88 86 85 83 86 89 88 87 86 84 83 83 81 78 79 88 88 83 78 82 80 79 83 82
141 148 154 139 134 129 122 119 114 107 101 98 94 92 91 89 88 86 86 87 87 86 85 85 90 91 89 87 86 85 83 81 78 80 85 84 84 80 82 83 83 84 83
139 143 144 142 136 131 125 122 118 112 106 100 96 94 92 89 88 88 85 87 87 86 86 86 90 94 92 89 87 85 82 80 79 82 82 82 83 82 82 82 83 85 85
136 141 140 144 141 134 129 125 121 115 111 106 103 99 94 90 89 90 87 86 87 86 89 88 90 93 93 92 89 86 81 78 89 84 81 80 82 82 81 82 85 86 86
131 133 138 139 143 137 134 130 124 120 118 113 108 105 98 92 91 90 91 87 85 86 89 95 93 93 94 93 91 87 79 73 85 84 82 81 80 83 84 85 85 87 87
125 121 127 126 129 134 134 131 127 125 123 119 114 111 105 99 96 94 94 92 89 86 91 101 97 97 96 94 93 87 78 76 90 83 82 83 80 82 84 86 87 89 89
111 114 115 131 132 129 129 128 128 126 125 122 118 116 111 105 103 99 98 97 96 92 90 103 102 100 98 95 92 88 81 73 91 83 82 82 80 82 85 87 90 92 91
98 94 92 104 130 132 130 125 126 127 126 122 117 113 110 108 105 102 102 100 101 98 92 98 106 103 101 95 91 88 87 92 86 84 82 81 79 84 85 86 87 87 89
104 94 89 100 110 123 132 129 127 129 126 124 119 115 119 125 119 111 100 101 100 99 94 96 104 105 107 99 93 94 99 90 82 76 74 74 79 87 91 91 91 91 87
172 144 104 119 120 116 125 141 143 143 143 144 141 139 134 128 116 108 102 100 100 98 96 95 108 116 119 115 107 109 99 89 84 75 65 68 76 84 88 89 90 92 93
199 188 163 144 149 132 122 144 143 145 150 152 149 145 141 128 120 116 113 110 108 105 101 102 113 125 122 115 115 107 93 89 82 77 65 63 73 81 87 86 87 89 93
220 215 232 239 184 162 148 148 154 156 154 150 154 153 152 134 128 126 120 124 123 120 117 117 112 124 126 124 122 114 102 91 86 78 64 61 65 73 81 83 85 91 91
241 236 233 234 209 186 161 146 148 167 166 162 160 164 161 151 150 143 127 131 138 128 130 132 129 132 129 125 123 120 111 100 94 86 73 60 57 64 77 79 83 88 90
249 252 254 246 231 197 175 158 154 160 170 169 163 168 167 162 154 150 140 137 136 133 144 155 145 145 135 124 121 118 111 107 101 88 79 71 58 54 63 77 77 80 82
251 253 245 246 243 209 182 168 159 159 162 165 167 172 171 173 170 164 155 151 146 139 146 144 141 136 129 123 112 100 98 96 98 94 78 72 77 61 54 64 74 75 74
245 245 240 245 248 230 186 172 162 156 159 152 153 165 174 177 177 176 165 159 159 153 150 148 152 151 145 141 126 103 105 98 87 73 80 73 68 65 65 61 65 69 71
235 233 219 231 224 293 188 165 153 143 143 148 148 148 158 172 181 183 176 160 164 157 152 151 158 167 157 151 137 121 107 103 94 81 93 101 84 67 67 67 66 63 66
243 213 162 116 82 73 91 141 146 148 136 130 130 160 168 168 170 173 175 168 172 163 157 160 160 157 166 163 134 118 92 99 112 84 85 94 101 82 68 65 70 66 59
166 172 175 148 131 127 149 192 193 203 190 173 149 158 177 175 169 169 166 180 177 178 175 169 162 160 157 164 162 150 161 165 197 237 306 333 91 93 83 77 61 52 55
217 218 215 192 187 187 219 226 240 199 201 176 140 138 158 180 180 180 181 183 182 182 178 175 171 177 181 193 197 181 196 198 187 226 251 259 266 150 140 144 89 37 9
241 237 234 224 210 211 230 146 85 120 165 189 210 199 224 200 194 190 192 187 183 189 189 188 190 192 193 207 224 216 205 211 209 204 229 243 264 265 258 248 241 256 265
247 244 236 224 212 206 181 178 168 192 215 227 220 210 196 189 189 195 199 193 183 189 192 196 203 210 198 200 220 260 276 263 210 204 211 231 250 256 262 264 256 260 261
231 232 232 225 206 195 189 203 204 217 226 177 170 185 191 178 160 171 194 185 184 191 195 194 200 210 208 210 209 223 233 239 239 233 235 243 257 262 279 279 264 259 263
214 213 214 219 209 180 187 204 210 211 192 155 138 183 200 201 194 190 212 195 192 193 199 202 198 206 212 218 217 219 227 228 225 235 243 247 257 260 267 268 257 249 254
Height
1539 1540 1541 1542 1542 1543 1544 1544 1544 1544 1545 1545 1545 1545 1546 1546 1547 1547 1547 1547 1547 1547 1547 1547 1547 1547 1546 1546 1546 1545 1545 1545 1545 1544 1544 1544 1544 1544 1544 1544 1544 1544 1544
1538 1539 1540 1541 1542 1543 1544 1544 1544 1545 1545 1545 1545 1546 1546 1547 1547 1548 1548 1548 1548 1548 1548 1548 1548 1548 1548 1547 1547 1547 1547 1547 1547 1547 1547 1547 1546 1546 1546 1546 1546 1546 1546
1538 1539 1540 1541 1542 1543 1544 1544 1545 1545 1545 1546 1546 1546 1547 1547 1548 1548 1548 1548 1548 1549 1549 1549 1549 1549 1549 1549 1548 1548 1548 1548 1548 1548 1549 1549 1548 1548 1548 1548 1548 1548 1548
1537 1539 1540 1541 1542 1543 1544 1545 1545 1545 1545 1546 1546 1547 1547 1547 1548 1548 1549 1549 1549 1549 1549 1550 1550 1550 1550 1550 1550 1549 1549 1549 1549 1550 1550 1550 1550 1550 1550 1550 1549 1549 1549
1538 1539 1540 1541 1542 1543 1544 1545 1545 1545 1545 1546 1546 1547 1547 1548 1548 1549 1549 1549 1549 1550 1550 1550 1550 1550 1550 1550 1550 1550 1551 1551 1551 1551 1551 1552 1551 1551 1551 1551 1551 1551 1550
1538 1539 1540 1541 1542 1543 1544 1544 1545 1545 1545 1546 1546 1547 1547 1548 1548 1548 1549 1549 1550 1550 1550 1551 1551 1551 1551 1551 1551 1551 1551 1552 1552 1552 1552 1553 1553 1552 1552 1552 1552 1552 1552
1538 1539 1540 1540 1542 1543 1543 1544 1544 1545 1545 1546 1546 1547 1547 1548 1548 1548 1549 1549 1550 1550 1550 1551 1551 1551 1551 1551 1551 1552 1552 1552 1553 1553 1553 1553 1553 1553 1553 1553 1553 1553 1553
1537 1539 1539 1540 1541 1542 1543 1543 1544 1544 1545 1545 1546 1546 1547 1547 1548 1548 1548 1549 1549 1550 1550 1551 1551 1551 1551 1551 1552 1552 1552 1553 1554 1554 1554 1554 1554 1554 1554 1554 1554 1554 1554
1537 1538 1539 1540 1541 1541 1542 1542 1543 1543 1544 1545 1545 1546 1546 1547 1547 1548 1548 1548 1549 1549 1550 1550 1551 1551 1551 1551 1552 1552 1553 1553 1554 1554 1554 1555 1555 1555 1555 1555 1555 1554 1554
1536 1537 1538 1539 1540 1540 1541 1541 1542 1543 1543 1544 1545 1545 1546 1546 1547 1547 1547 1548 1548 1549 1549 1550 1550 1550 1551 1551 1552 1552 1553 1554 1554 1554 1555 1555 1555 1555 1555 1555 1555 1555 1555
1535 1536 1537 1537 1538 1539 1540 1540 1541 1542 1542 1543 1544 1544 1545 1546 1546 1546 1546 1547 1548 1548 1548 1549 1549 1550 1550 1551 1551 1552 1553 1554 1554 1554 1555 1555 1555 1555 1555 1555 1555 1555 1555
1533 1534 1535 1535 1536 1537 1538 1539 1540 1540 1541 1542 1542 1543 1544 1544 1545 1545 1545 1546 1547 1547 1547 1548 1548 1549 1550 1550 1551 1552 1552 1553 1553 1554 1554 1555 1555 1555 1555 1555 1555 1555 1556
1531 1532 1533 1534 1535 1535 1536 1537 1538 1538 1539 1540 1541 1541 1542 1543 1543 1544 1544 1545 1545 1546 1546 1547 1547 1548 1548 1549 1550 1551 1552 1552 1553 1553 1554 1554 1555 1555 1555 1555 1555 1555 1556
1529 1530 1531 1532 1533 1533 1534 1535 1536 1536 1537 1538 1539 1539 1540 1541 1541 1542 1543 1543 1544 1544 1545 1545 1546 1547 1548 1548 1549 1550 1551 1551 1552 1553 1553 1553 1554 1554 1554 1554 1555 1555 1555
1527 1528 1529 1529 1530 1531 1532 1533 1534 1534 1535 1536 1537 1538 1538 1539 1539 1540 1541 1541 1542 1543 1543 1544 1544 1545 1546 1547 1548 1549 1549 1550 1551 1552 1552 1552 1553 1554 1554 1554 1554 1554 1554
1524 1525 1526 1527 1528 1529 1530 1530 1531 1532 1533 1534 1535 1535 1536 1537 1537 1538 1538 1539 1540 1540 1541 1542 1542 1543 1544 1545 1546 1547 1548 1549 1549 1550 1551 1551 1552 1552 1553 1553 1553 1553 1553
1522 1523 1523 1524 1525 1526 1527 1528 1529 1530 1530 1531 1532 1533 1533 1534 1535 1535 1536 1537 1537 1538 1539 1540 1540 1541 1542 1543 1544 1545 1546 1547 1547 1548 1549 1549 1550 1551 1551 1551 1551 1552 1552
1519 1520 1520 1521 1522 1523 1524 1525 1526 1527 1527 1528 1529 1530 1530 1531 1532 1533 1533 1534 1535 1536 1536 1537 1538 1539 1540 1541 1542 1543 1543 1544 1545 1546 1547 1548 1548 1549 1549 1550 1550 1550 1550
1517 1517 1518 1519 1519 1520 1521 1522 1523 1524 1524 1525 1526 1527 1527 1528 1529 1530 1530 1531 1532 1533 1534 1535 1535 1536 1538 1539 1539 1540 1541 1542 1543 1544 1545 1545 1546 1547 1547 1548 1548 1548 1549
1514 1515 1515 1516 1517 1518 1519 1519 1520 1521 1522 1522 1523 1524 1524 1525 1525 1526 1527 1528 1529 1530 1530 1532 1533 1534 1535 1536 1537 1538 1539 1539 1540 1541 1542 1543 1544 1544 1545 1545 1546 1546 1546
1512 1512 1513 1514 1514 1515 1516 1516 1517 1517 1518 1519 1520 1520 1521 1522 1522 1523 1524 1525 1526 1527 1528 1529 1530 1531 1532 1534 1535 1535 1536 1537 1538 1539 1540 1540 1541 1542 1542 1543 1543 1544 1544
1509 1509 1510 1511 1512 1513 1513 1514 1515 1515 1515 1516 1517 1517 1517 1518 1519 1520 1521 1521 1522 1523 1525 1526 1527 1528 1529 1531 1532 1533 1534 1536 1535 1535 1536 1537 1538 1538 1539 1540 1540 1541 1541
1506 1507 1507 1508 1509 1510 1511 1511 1512 1512 1513 1513 1513 1514 1514 1515 1516 1517 1518 1519 1520 1521 1522 1523 1524 1525 1526 1527 1529 1531 1532 1533 1533 1533 1533 1534 1534 1535 1536 1536 1537 1537 1538
1503 1504 1505 1506 1506 1507 1508 1508 1508 1509 1508 1509 1510 1511 1512 1513 1513 1514 1515 1516 1517 1518 1519 1520 1521 1523 1524 1524 1525 1527 1529 1529 1530 1530 1531 1531 1531 1532 1532 1533 1533 1534 1534
1501 1502 1502 1503 1504 1504 1505 1505 1506 1506 1507 1507 1508 1508 1509 1509 1510 1511 1511 1512 1513 1514 1516 1517 1518 1519 1520 1521 1522 1523 1525 1525 1526 1527 1527 1527 1528 1528 1529 1529 1530 1530 1531
1498 1499 1499 1500 1501 1501 1502 1503 1503 1504 1504 1504 1504 1505 1506 1506 1507 1508 1508 1509 1510 1511 1512 1513 1514 1515 1517 1518 1519 1520 1521 1522 1522 1523 1524 1524 1524 1525 1525 1525 1526 1526 1527